Temp_Advection
nan nan nan nan nan nan nan nan nan nan nan nan nan nan nan nan nan nan nan nan nan nan nan nan nan nan nan nan nan nan nan nan nan nan nan nan nan nan nan nan nan nan nan
nan 1 0 1 1 1 1 0 1 1 1 2 2 1 1 1 1 1 0 1 1 1 0 1 0 0 1 0 0 1 1 1 0 -0 0 0 -0 -0 -0 -1 0 0 nan
nan 0 -0 1 1 1 1 1 2 1 2 3 2 2 1 1 1 1 0 0 0 1 1 1 1 0 0 1 0 1 1 1 1 0 0 0 0 -0 -1 -1 -0 -0 nan
nan 0 1 1 1 1 1 3 2 1 3 2 1 1 1 1 1 1 1 -0 -0 0 0 0 1 1 0 0 0 0 1 0 1 1 0 -0 -0 -0 -0 0 0 0 nan
nan 0 0 1 2 1 1 2 1 1 1 1 1 1 1 1 1 1 1 0 0 0 0 0 0 0 0 0 0 -0 0 1 1 1 0 -1 -1 -0 -0 0 1 0 nan
nan 0 -0 0 1 1 1 1 0 0 1 -0 1 2 1 1 1 1 1 1 0 0 0 0 0 0 0 0 0 0 -0 0 0 1 1 0 -0 -1 -2 -0 1 0 nan
nan 0 0 1 1 1 1 1 0 1 1 0 0 1 1 1 1 1 1 0 0 0 -0 0 -0 -0 -0 -0 -0 -0 -0 0 0 0 1 1 1 1 -1 -2 -0 1 nan
nan 0 0 1 1 0 1 0 0 3 2 -0 1 1 1 1 2 1 1 1 0 0 0 -0 -0 -0 0 0 0 0 0 -0 -0 0 1 0 0 1 1 -0 -1 0 nan
nan 1 0 0 0 0 1 1 2 3 1 -0 1 1 -1 -0 1 3 1 1 1 0 0 0 0 0 0 1 1 1 0 0 0 -0 0 1 0 -0 0 0 0 0 nan
nan 0 1 0 0 0 0 0 1 2 1 0 1 1 -1 -1 -0 1 2 2 1 1 1 1 1 1 0 0 0 -0 1 1 0 0 0 1 -0 -0 0 0 0 0 nan
nan -0 -0 0 0 0 1 0 1 2 0 -0 -0 1 -0 2 1 -0 1 1 0 1 1 1 1 1 1 0 -0 -0 -0 -0 0 0 0 1 0 -0 0 0 0 0 nan
nan -0 0 0 0 0 0 -0 1 1 -0 -0 1 1 1 1 -0 -1 -3 1 2 1 2 1 1 1 1 1 1 1 -0 -1 -0 0 0 0 0 -0 0 0 0 0 nan
nan -1 -0 0 0 0 0 1 1 0 0 1 1 1 -0 -1 -1 -2 -0 0 3 3 2 1 1 1 1 1 1 1 1 -0 -1 0 1 0 0 -0 -0 0 0 -0 nan
nan -0 -0 -0 -0 0 1 1 0 1 1 0 2 1 -0 1 0 0 2 -0 -1 1 2 1 1 1 1 1 1 1 1 1 -0 -1 -1 0 0 -0 -1 -1 -0 -0 nan
nan 0 0 -0 -1 -0 1 0 1 1 0 1 1 -0 1 2 0 0 0 0 1 -2 1 1 2 1 1 1 1 1 1 1 1 -0 -1 -1 -0 -0 -0 -1 -0 -0 nan
nan 0 -0 -0 0 -0 -0 1 1 -0 1 1 0 1 2 0 -1 -0 1 2 -1 -1 -1 0 1 1 1 1 1 1 1 1 1 1 0 0 0 0 0 0 0 0 nan
nan 0 -0 -0 0 -0 0 0 0 1 1 -0 -0 1 1 -0 1 1 2 0 0 1 -1 -0 1 1 1 1 2 1 1 1 0 1 1 1 0 0 0 0 0 0 nan
nan 0 0 0 0 -0 -0 -0 1 1 -1 -1 1 2 0 -0 0 1 2 1 1 0 1 0 0 0 1 1 1 1 1 0 1 0 1 0 0 0 0 0 0 0 nan
nan 0 0 0 -0 -0 -0 1 0 -1 -0 1 2 1 -0 0 0 2 1 -0 0 1 1 1 1 1 0 1 1 1 1 1 1 0 1 0 1 1 0 0 0 0 nan
nan -0 0 0 0 0 0 0 -1 0 1 1 0 -0 -0 0 0 0 -0 1 2 2 1 1 2 1 1 1 1 1 0 1 1 0 1 1 1 1 1 1 1 0 nan
nan -0 -0 -0 0 0 -0 -0 0 -0 -0 0 0 -0 0 0 0 0 2 1 -0 -0 1 -0 1 0 2 -0 -0 -1 -1 1 2 2 1 1 1 1 1 1 1 1 nan
nan -1 -1 -1 -0 -0 0 1 -0 -0 -0 -0 0 0 0 1 0 1 1 -0 -0 0 -2 -3 -3 -2 -2 -3 -3 -1 -0 -2 -1 0 0 1 2 1 1 1 1 0 nan
nan -1 -1 -1 -1 -1 0 -1 -0 0 -0 0 0 0 1 1 1 0 0 1 2 -0 -3 -0 -4 -5 -6 -3 -3 -4 -3 0 -1 -1 1 1 1 1 1 1 1 1 nan
nan -0 -0 0 -0 -1 0 -0 -1 -1 -0 -0 1 1 0 0 0 1 2 2 2 1 2 1 -0 -0 0 -2 -2 0 4 4 2 2 1 -0 1 1 1 1 1 1 nan
nan 0 -0 -0 -0 -0 -0 -0 -0 -1 -1 0 -0 -0 0 0 0 1 1 2 3 3 2 3 4 5 3 2 2 3 -0 -1 -1 3 0 -1 -1 0 1 0 1 1 nan
nan nan nan nan nan nan nan nan nan nan nan nan nan nan nan nan nan nan nan nan nan nan nan nan nan nan nan nan nan nan nan nan nan nan nan nan nan nan nan nan nan nan nan
Wind_Speed
44 43 43 43 42 40 38 38 38 37 36 35 35 34 33 29 26 22 18 17 18 19 16 13 13 13 14 16 15 15 14 15 16 15 14 15 14 13 13 15 15 15 15
46 45 45 45 44 41 39 38 38 38 37 36 38 37 36 32 29 25 22 20 19 19 17 17 16 15 15 16 16 15 15 15 14 16 15 14 15 15 16 17 16 15 14
44 44 45 47 48 45 41 37 37 38 39 39 40 40 38 34 30 28 24 22 21 21 20 19 18 17 17 17 18 18 15 15 17 16 15 15 16 16 17 21 18 20 18
41 40 42 48 49 45 27 40 38 41 41 39 41 41 39 35 32 30 26 23 25 24 21 20 19 19 19 17 19 17 18 19 18 16 17 17 20 19 22 21 20 18 17
38 40 41 44 49 42 35 39 37 37 37 36 36 38 39 36 34 32 28 26 26 27 24 22 20 20 20 18 19 18 18 19 18 18 18 19 20 19 22 22 20 19 18
36 38 41 35 37 39 37 36 40 37 34 41 41 39 37 37 34 32 31 30 28 26 24 22 22 20 20 19 18 18 19 20 19 18 18 17 16 19 22 22 21 20 18
32 33 34 33 31 36 37 33 38 35 46 44 39 39 36 37 36 37 34 32 30 29 25 22 20 22 21 19 19 19 20 18 19 17 16 16 15 15 15 19 19 17 16
30 30 31 30 30 34 35 38 40 43 47 48 44 45 35 36 40 40 39 35 33 31 27 26 23 23 25 24 22 21 20 18 19 17 15 15 16 15 16 16 16 15 17
27 31 25 27 25 29 33 35 43 48 49 54 52 41 26 18 38 44 43 39 35 32 31 29 26 24 27 28 26 25 23 20 19 18 18 17 16 15 18 21 17 17 18
21 22 21 18 24 27 33 35 39 48 52 53 50 48 45 41 32 25 40 42 37 36 34 33 30 27 29 29 29 27 26 24 22 17 17 16 17 18 17 18 20 21 19
9 13 19 23 22 28 30 34 39 45 54 48 53 54 46 40 37 35 31 38 41 42 38 35 32 31 32 29 27 24 25 23 23 21 20 18 19 19 19 20 20 20 22
18 14 12 18 23 21 29 33 42 49 52 36 40 57 56 52 50 43 41 42 44 40 41 37 34 32 35 31 27 24 23 27 26 22 21 19 19 20 19 20 18 18 19
24 21 16 15 15 21 23 31 36 36 47 46 44 58 62 61 58 49 45 47 43 43 38 36 34 36 36 33 29 25 24 24 27 25 21 19 20 21 21 19 21 20 17
27 24 21 23 18 16 19 30 37 36 48 49 47 56 65 60 60 57 56 50 29 30 39 40 41 39 37 35 30 27 25 23 25 26 23 20 20 19 19 21 18 14 13
26 22 27 30 32 31 26 28 26 31 49 52 48 55 58 65 60 51 49 42 47 28 32 41 44 44 41 36 31 29 29 28 25 24 24 23 19 17 16 16 14 11 11
17 19 24 27 29 31 32 32 30 33 40 48 48 43 56 58 54 48 49 46 45 43 37 36 38 46 42 39 35 34 33 30 26 22 24 21 19 18 16 14 13 12 10
15 15 22 25 27 30 32 36 37 39 27 48 48 46 54 57 59 57 51 48 43 42 36 36 44 44 43 41 38 36 35 32 29 23 23 24 21 18 16 14 13 12 11
16 15 20 25 25 27 28 33 42 41 40 40 36 45 51 55 57 58 55 48 46 42 39 38 46 47 45 40 40 41 40 35 30 27 25 24 21 19 17 15 12 11 11
17 18 21 21 27 26 29 33 36 40 46 49 45 47 51 53 56 54 52 53 49 46 47 37 41 49 48 43 43 41 39 35 30 29 26 23 21 19 16 15 13 11 9
19 19 19 24 25 28 31 33 39 40 41 54 45 48 47 46 56 56 54 54 56 53 43 38 46 54 52 48 46 46 39 34 34 31 27 24 22 20 18 15 14 12 10
18 20 22 24 27 30 31 33 34 40 43 42 39 52 52 45 51 53 53 54 58 54 50 50 54 58 59 57 54 47 42 38 34 33 30 28 25 22 21 17 14 13 12
18 17 17 22 27 30 34 37 32 36 41 43 43 40 39 46 44 49 46 52 55 59 59 54 57 63 64 62 57 52 49 48 40 34 35 32 28 25 22 19 16 14 12
19 19 20 19 21 24 28 33 38 34 37 45 42 41 40 44 46 49 48 46 52 55 57 56 61 63 64 66 63 58 53 50 44 43 38 35 30 26 22 19 16 14 12
22 23 22 20 20 24 26 25 31 38 34 35 41 44 38 43 41 50 51 54 56 55 61 62 53 59 63 64 60 56 55 49 39 41 39 34 32 28 25 20 17 15 13
23 22 22 21 20 20 21 25 28 29 35 34 33 39 36 40 40 42 45 56 57 61 62 64 59 61 59 54 59 60 55 53 42 46 42 36 34 31 26 22 19 16 13
24 22 21 20 18 17 15 19 29 28 30 34 38 32 36 37 39 44 49 53 62 63 62 58 51 49 50 57 57 56 55 58 50 40 45 34 41 36 23 24 21 19 16
Wind_Direction
227 228 227 230 231 224 213 212 212 213 214 211 208 206 201 199 197 191 178 172 168 166 165 161 148 146 142 134 134 133 129 123 120 115 112 113 113 109 103 95 99 107 104
228 228 229 232 232 229 220 215 217 216 216 211 208 204 202 199 196 190 177 168 169 169 165 155 150 147 143 142 139 130 130 126 120 116 119 115 105 103 105 96 95 91 91
232 239 236 239 238 235 226 220 218 220 218 212 207 203 200 196 193 187 179 168 166 166 164 162 156 154 148 145 140 139 133 129 121 122 119 111 111 106 105 99 95 94 94
237 244 248 242 243 238 239 240 216 218 218 214 206 204 199 195 191 187 179 170 167 172 166 162 156 153 147 148 144 137 131 123 125 122 112 109 106 107 111 103 100 104 90
241 242 247 251 248 241 243 226 220 219 212 210 208 202 198 192 191 185 181 175 173 178 175 165 158 153 149 149 139 139 134 132 128 124 120 118 115 111 109 104 105 96 99
244 243 248 255 262 244 237 234 226 219 218 214 206 209 198 192 189 186 182 181 178 179 178 172 164 153 154 156 149 143 138 136 131 130 130 128 127 119 115 116 116 117 111
243 245 248 251 254 253 247 228 215 227 212 209 209 194 192 193 191 190 187 185 181 184 179 172 163 157 155 153 154 149 144 138 136 135 129 126 124 124 129 130 128 126 121
250 245 243 246 252 245 244 235 230 228 213 207 197 204 185 189 190 193 191 188 186 187 188 185 176 164 161 164 162 158 155 143 135 136 135 129 122 123 122 121 124 124 117
248 243 249 251 252 250 248 251 245 221 202 205 210 192 171 193 182 183 188 190 190 191 192 189 184 177 170 174 172 168 159 151 144 138 137 132 131 124 124 120 125 118 113
243 243 234 246 249 250 251 249 236 223 219 216 200 202 205 193 173 180 180 186 193 193 191 188 187 183 182 179 178 175 173 164 145 154 141 135 132 125 123 118 118 115 111
313 279 245 243 236 245 243 245 242 225 217 213 211 202 208 206 198 184 176 175 180 186 192 191 190 188 189 189 187 185 179 157 151 160 145 140 140 137 133 132 129 130 126
279 286 276 254 250 242 246 249 254 233 223 218 224 218 209 206 195 190 182 184 180 180 183 187 188 192 192 195 194 193 186 164 161 163 153 147 142 137 138 132 137 128 124
272 285 268 261 264 246 238 250 233 243 225 217 225 211 209 208 218 206 207 189 181 182 182 186 192 194 197 198 194 198 194 176 173 162 160 162 152 149 148 142 130 134 128
264 252 258 262 263 268 266 243 232 243 233 226 230 219 215 216 215 212 209 197 180 186 184 186 191 193 196 198 194 198 195 192 183 170 163 164 159 160 157 151 157 144 139
267 260 250 250 246 243 244 255 241 240 225 223 223 219 221 218 214 209 213 213 209 182 189 190 187 192 196 197 197 197 200 200 190 184 178 178 172 169 165 167 168 158 149
269 255 251 251 256 249 246 237 254 254 241 228 232 235 226 219 217 223 239 215 204 204 190 200 194 191 193 195 195 201 200 201 199 191 183 183 179 178 178 170 168 165 155
273 256 252 254 254 249 241 242 239 242 242 236 232 235 226 227 226 223 212 208 221 209 200 201 206 194 191 193 187 193 194 200 199 198 185 186 183 182 179 177 174 172 168
285 278 259 255 253 249 246 241 239 236 228 226 238 238 220 226 224 223 221 210 199 206 221 207 198 194 195 190 185 187 190 197 197 196 189 185 185 183 180 181 175 177 175
305 282 267 261 252 253 252 246 244 246 236 235 227 240 231 232 228 226 218 209 211 219 202 208 196 194 193 190 188 191 192 193 193 189 188 189 185 186 184 184 182 177 177
306 291 274 262 254 243 245 247 246 240 246 235 243 237 233 234 229 226 223 217 215 202 195 197 193 189 193 190 194 191 186 191 185 185 187 188 188 187 187 185 183 182 180
313 302 291 277 265 250 237 239 246 244 238 236 235 238 233 234 236 234 231 216 214 201 191 190 187 186 187 188 192 189 186 179 182 185 181 185 187 184 184 183 181 179 178
328 316 301 286 277 269 254 241 239 244 238 232 232 230 237 238 239 234 235 232 226 204 192 189 191 190 188 189 191 189 187 180 172 185 184 179 184 179 178 176 176 174 174
334 326 317 303 289 280 269 244 236 243 237 225 238 229 227 232 233 234 232 241 237 227 220 213 198 198 194 193 191 188 190 189 186 180 182 174 175 176 174 174 172 171 168
338 330 321 310 288 286 278 264 238 235 238 231 226 230 224 230 227 229 220 217 224 229 221 217 216 204 202 196 194 191 190 187 186 178 178 168 173 176 172 173 170 170 164
333 328 324 317 303 289 277 260 240 241 235 236 240 233 233 231 234 225 228 221 213 211 214 212 211 206 201 197 190 188 181 183 176 176 179 179 173 173 174 174 176 176 171
330 327 326 323 313 300 296 271 237 240 240 232 228 231 226 233 234 235 226 218 208 206 204 199 199 199 197 193 196 201 194 188 179 173 183 180 177 174 173 184 183 185 185
Height
1506 1508 1511 1511 1514 1516 1518 1521 1525 1527 1528 1532 1535 1538 1540 1544 1547 1551 1554 1557 1557 1559 1561 1562 1564 1565 1565 1565 1566 1567 1568 1568 1569 1569 1570 1569 1570 1571 1571 1573 1573 1574 1575
1500 1502 1505 1506 1509 1513 1515 1518 1521 1522 1524 1527 1530 1534 1538 1539 1544 1547 1550 1554 1556 1556 1558 1561 1563 1567 1567 1565 1566 1569 1568 1569 1569 1571 1571 1571 1571 1572 1573 1573 1575 1575 1575
1493 1496 1499 1501 1503 1506 1509 1514 1519 1524 1522 1522 1527 1530 1535 1536 1541 1545 1547 1550 1555 1556 1556 1559 1561 1564 1567 1566 1566 1568 1569 1570 1570 1572 1572 1572 1572 1573 1574 1575 1576 1577 1577
1487 1491 1494 1495 1498 1494 1490 1510 1508 1518 1521 1522 1524 1529 1531 1532 1537 1541 1545 1547 1551 1555 1555 1557 1560 1563 1567 1569 1566 1568 1570 1571 1573 1571 1573 1574 1574 1574 1575 1576 1577 1579 1579
1481 1482 1485 1488 1490 1491 1499 1502 1507 1516 1517 1520 1526 1532 1533 1528 1535 1536 1541 1545 1548 1552 1553 1555 1558 1561 1565 1568 1570 1568 1569 1570 1573 1573 1573 1574 1575 1575 1577 1579 1580 1580 1580
1474 1477 1480 1482 1486 1491 1492 1498 1502 1509 1511 1518 1520 1526 1529 1527 1533 1535 1537 1541 1545 1549 1552 1551 1554 1558 1563 1567 1568 1570 1570 1570 1573 1574 1574 1575 1575 1575 1577 1579 1579 1581 1582
1468 1470 1473 1476 1477 1483 1487 1489 1495 1499 1504 1507 1520 1521 1522 1529 1526 1532 1534 1537 1540 1545 1550 1552 1553 1556 1560 1566 1569 1570 1571 1573 1570 1575 1575 1574 1575 1576 1576 1577 1579 1581 1582
1462 1465 1466 1467 1471 1474 1481 1485 1487 1488 1499 1502 1505 1512 1520 1523 1523 1524 1531 1532 1534 1540 1545 1548 1550 1553 1557 1563 1568 1569 1571 1574 1571 1574 1575 1575 1575 1577 1577 1578 1579 1580 1582
1455 1458 1458 1460 1462 1466 1471 1476 1477 1477 1487 1490 1491 1496 1505 1513 1513 1517 1522 1525 1528 1534 1539 1542 1548 1550 1554 1560 1564 1566 1569 1571 1570 1574 1574 1576 1575 1578 1578 1579 1579 1580 1583
1449 1450 1450 1453 1456 1458 1461 1464 1470 1471 1478 1479 1486 1488 1494 1495 1499 1510 1514 1519 1523 1527 1532 1536 1541 1547 1552 1557 1559 1561 1564 1566 1568 1573 1574 1574 1575 1578 1579 1580 1581 1581 1582
1445 1445 1445 1447 1449 1451 1453 1456 1461 1465 1468 1471 1481 1481 1486 1492 1500 1499 1506 1510 1517 1523 1528 1529 1535 1541 1548 1554 1556 1557 1559 1562 1565 1571 1573 1573 1575 1578 1580 1581 1582 1581 1583
1445 1440 1441 1443 1442 1441 1446 1450 1452 1455 1457 1466 1469 1473 1479 1487 1489 1492 1499 1507 1507 1513 1525 1524 1529 1538 1543 1550 1554 1553 1556 1559 1562 1569 1569 1570 1573 1577 1580 1580 1580 1582 1583
1432 1435 1436 1438 1438 1435 1437 1440 1442 1447 1450 1455 1460 1460 1467 1476 1483 1485 1491 1499 1501 1510 1518 1520 1525 1534 1540 1545 1548 1551 1554 1557 1559 1565 1568 1569 1571 1575 1578 1579 1579 1581 1583
1424 1429 1427 1435 1435 1433 1435 1435 1434 1439 1440 1449 1453 1456 1461 1464 1471 1472 1482 1489 1501 1506 1509 1512 1520 1529 1535 1539 1543 1548 1551 1555 1559 1562 1564 1567 1570 1573 1576 1578 1578 1577 1579
1419 1411 1419 1421 1429 1422 1425 1434 1432 1434 1434 1439 1445 1448 1452 1455 1460 1465 1472 1478 1490 1498 1504 1509 1515 1522 1529 1534 1540 1547 1547 1550 1556 1560 1561 1563 1567 1572 1573 1576 1578 1578 1577
1410 1407 1411 1418 1418 1418 1414 1422 1427 1431 1431 1432 1436 1442 1443 1447 1454 1457 1463 1471 1479 1488 1496 1500 1511 1514 1524 1527 1535 1540 1543 1547 1553 1558 1560 1561 1564 1569 1573 1574 1576 1577 1576
1401 1400 1404 1406 1408 1410 1409 1412 1414 1422 1426 1427 1429 1433 1436 1440 1445 1450 1455 1460 1465 1476 1483 1495 1506 1512 1520 1522 1529 1535 1540 1543 1549 1555 1558 1559 1561 1566 1569 1573 1575 1575 1575
1390 1393 1397 1399 1400 1400 1400 1404 1407 1411 1413 1416 1423 1427 1428 1433 1436 1441 1447 1452 1457 1463 1475 1485 1496 1504 1516 1520 1525 1528 1534 1538 1543 1552 1554 1556 1559 1564 1566 1571 1572 1574 1575
1387 1387 1388 1389 1391 1392 1392 1396 1398 1400 1403 1406 1407 1416 1421 1423 1428 1432 1439 1445 1450 1455 1465 1475 1483 1498 1506 1512 1521 1525 1528 1532 1539 1546 1551 1553 1556 1562 1565 1568 1569 1571 1574
1383 1382 1382 1382 1382 1383 1385 1387 1390 1389 1392 1394 1398 1401 1408 1412 1416 1421 1426 1433 1441 1447 1454 1466 1477 1485 1492 1502 1514 1516 1522 1529 1532 1541 1547 1549 1553 1558 1562 1565 1567 1568 1570
1378 1376 1374 1373 1373 1373 1374 1376 1378 1380 1382 1385 1388 1391 1396 1402 1406 1412 1417 1422 1429 1436 1445 1454 1469 1471 1479 1487 1497 1508 1517 1523 1529 1534 1540 1544 1549 1554 1558 1561 1564 1565 1567
1374 1371 1369 1366 1363 1361 1362 1366 1368 1370 1372 1374 1378 1383 1386 1396 1398 1401 1409 1413 1416 1425 1435 1440 1453 1460 1463 1471 1487 1496 1504 1510 1521 1527 1534 1539 1546 1550 1554 1556 1559 1563 1566
1368 1365 1362 1359 1357 1354 1353 1353 1358 1360 1363 1359 1368 1374 1381 1386 1391 1394 1400 1404 1410 1416 1421 1426 1434 1445 1452 1453 1467 1483 1493 1502 1508 1516 1526 1535 1542 1547 1553 1555 1557 1560 1562
1363 1359 1356 1353 1350 1347 1345 1344 1346 1349 1352 1354 1358 1365 1370 1375 1380 1387 1391 1397 1405 1409 1417 1419 1424 1433 1442 1448 1460 1473 1484 1499 1508 1515 1524 1530 1537 1543 1549 1554 1555 1558 1560
1359 1355 1351 1347 1343 1340 1337 1335 1337 1339 1342 1344 1350 1354 1362 1365 1370 1377 1383 1389 1397 1403 1410 1416 1422 1427 1439 1448 1457 1467 1476 1489 1501 1511 1519 1523 1532 1538 1546 1551 1552 1557 1558
1356 1351 1346 1342 1338 1333 1331 1328 1328 1328 1331 1338 1343 1345 1352 1357 1361 1368 1373 1380 1387 1392 1400 1409 1418 1429 1439 1449 1453 1462 1465 1478 1494 1508 1512 1518 1524 1532 1542 1547 1549 1552 1555